Location: Norton
(51.3000°N, 0.8167°E)
Time: 14:06:45
(UTC+00:00)

OBJECT-B - Pass Details

Date: 03 March 2021
Orbit: 414 x 427 km, 97.0° (Epoch: 09 April)

Event Time Altitude Azimuth Distance (km) Brightness Sun altitude
Exits shadow 19:37:55 72° 106° (ESE) 450 0.6 -18.9°
Maximum altitude 19:38:04 74° 76° (ENE) 444 0.6 -19.0°
Drops below altitude 10° 19:41:18 10° 350° (N) 1,516 3.9 -19.4°
Sets 19:43:19 0° 349° (N) 2,383 4.9 -19.8°
